TimeCST,TemperatureF,Dew PointF,Humidity,Sea Level PressureIn,VisibilityMPH,Wind Direction,Wind SpeedMPH,Gust SpeedMPH,PrecipitationIn,Events,Conditions,WindDirDegrees,DateUTC
12:15 AM,26.6,26.6,100,29.80,10.0,SE,6.9,-,N/A,,Clear,140,2013-12-28 06:15:00
12:35 AM,26.6,26.6,100,29.79,10.0,SE,8.1,-,N/A,,Clear,130,2013-12-28 06:35:00
12:55 AM,28.4,28.4,100,29.78,10.0,SSE,11.5,-,N/A,,Clear,150,2013-12-28 06:55:00
1:15 AM,28.4,28.4,100,29.76,10.0,ESE,6.9,-,N/A,,Clear,120,2013-12-28 07:15:00
1:35 AM,28.4,28.4,100,29.75,10.0,SSE,11.5,-,N/A,,Clear,150,2013-12-28 07:35:00
1:55 AM,28.4,28.4,100,29.74,10.0,SE,6.9,-,N/A,,Clear,140,2013-12-28 07:55:00
2:15 AM,28.4,28.4,100,29.73,10.0,SE,4.6,-,N/A,,Clear,140,2013-12-28 08:15:00
2:35 AM,26.6,24.8,93,29.73,10.0,NE,6.9,-,N/A,,Clear,50,2013-12-28 08:35:00
2:55 AM,28.4,28.4,100,29.73,10.0,SSE,8.1,-,N/A,,Clear,150,2013-12-28 08:55:00
3:15 AM,28.4,26.6,93,29.72,10.0,ESE,8.1,-,N/A,,Clear,120,2013-12-28 09:15:00
3:35 AM,28.4,28.4,100,29.70,10.0,SE,6.9,-,N/A,,Clear,130,2013-12-28 09:35:00
3:55 AM,28.4,28.4,100,29.69,10.0,SE,11.5,-,N/A,,Clear,140,2013-12-28 09:55:00
4:15 AM,28.4,28.4,100,29.68,10.0,SE,10.4,-,N/A,,Clear,140,2013-12-28 10:15:00
4:35 AM,28.4,28.4,100,29.68,10.0,SSE,10.4,-,N/A,,Clear,150,2013-12-28 10:35:00
4:55 AM,26.6,26.6,100,29.67,10.0,SE,3.5,-,N/A,,Clear,130,2013-12-28 10:55:00
5:15 AM,26.6,26.6,100,29.67,10.0,ESE,6.9,-,N/A,,Clear,110,2013-12-28 11:15:00
5:35 AM,24.8,24.8,100,29.67,10.0,SSE,6.9,-,N/A,,Clear,150,2013-12-28 11:35:00
5:55 AM,24.8,24.8,100,29.67,10.0,South,3.5,-,N/A,,Clear,180,2013-12-28 11:55:00
6:15 AM,23.0,23.0,100,29.67,10.0,East,6.9,-,N/A,,Clear,90,2013-12-28 12:15:00
6:35 AM,21.2,21.2,100,29.67,10.0,East,3.5,-,N/A,,Clear,100,2013-12-28 12:35:00
6:55 AM,19.4,19.4,100,29.68,10.0,Calm,Calm,-,N/A,,Clear,0,2013-12-28 12:55:00
7:15 AM,19.4,19.4,100,29.69,10.0,Calm,Calm,-,N/A,,Clear,0,2013-12-28 13:15:00
7:35 AM,23.0,23.0,100,29.68,10.0,West,4.6,-,N/A,,Clear,270,2013-12-28 13:35:00
7:55 AM,19.4,19.4,100,29.70,10.0,West,6.9,-,N/A,,Clear,280,2013-12-28 13:55:00
8:15 AM,19.4,19.4,100,29.72,10.0,West,5.8,-,N/A,,Clear,280,2013-12-28 14:15:00
8:35 AM,19.4,19.4,100,29.73,10.0,WNW,6.9,-,N/A,,Clear,290,2013-12-28 14:35:00
8:55 AM,26.6,26.6,100,29.74,10.0,WNW,6.9,-,N/A,,Clear,290,2013-12-28 14:55:00
9:15 AM,24.8,24.8,100,29.75,10.0,West,3.5,-,N/A,,Clear,270,2013-12-28 15:15:00
9:35 AM,24.8,24.8,100,29.76,10.0,West,6.9,-,N/A,,Clear,270,2013-12-28 15:35:00
9:55 AM,26.6,26.6,100,29.76,10.0,WNW,4.6,-,N/A,,Clear,300,2013-12-28 15:55:00
10:15 AM,32.0,26.6,80,29.78,10.0,WNW,6.9,-,N/A,,Clear,300,2013-12-28 16:15:00
10:35 AM,32.0,26.6,80,29.80,10.0,NW,6.9,-,N/A,,Clear,310,2013-12-28 16:35:00
10:55 AM,32.0,28.4,87,29.82,10.0,North,16.1,25.3,N/A,,Clear,10,2013-12-28 16:55:00
11:15 AM,23.0,21.2,93,29.86,8.0,NNE,13.8,26.5,N/A,,Mostly Cloudy,20,2013-12-28 17:15:00
11:35 AM,17.6,15.8,93,29.90,5.0,North,21.9,27.6,N/A,,Overcast,10,2013-12-28 17:35:00
11:55 AM,15.8,14.0,93,29.92,7.0,North,16.1,21.9,N/A,Rain,Freezing Rain,10,2013-12-28 17:55:00
12:15 PM,14.0,10.4,86,29.93,10.0,North,19.6,23.0,N/A,Rain,Freezing Rain,360,2013-12-28 18:15:00
12:35 PM,14.0,10.4,86,29.97,5.0,North,20.7,28.8,N/A,Snow,Light Snow,360,2013-12-28 18:35:00
12:55 PM,10.4,6.8,85,29.99,8.0,North,27.6,33.4,N/A,Rain,Freezing Rain,350,2013-12-28 18:55:00
1:15 PM,10.4,5.0,79,30.01,8.0,NNW,27.6,36.8,N/A,Rain,Freezing Rain,340,2013-12-28 19:15:00
1:35 PM,8.6,5.0,85,30.03,4.0,NNW,27.6,36.8,N/A,Rain,Freezing Rain,340,2013-12-28 19:35:00
1:55 PM,6.8,3.2,85,30.05,1.0,NNW,31.1,38.0,0.01,Snow,Light Snow,340,2013-12-28 19:55:00
2:15 PM,6.8,1.4,79,30.08,5.0,North,28.8,38.0,N/A,Rain,Freezing Rain,350,2013-12-28 20:15:00
2:35 PM,5.0,-0.4,78,30.11,4.0,NNW,26.5,35.7,N/A,Rain,Freezing Rain,340,2013-12-28 20:35:00
2:55 PM,5.0,-0.4,78,30.13,5.0,North,25.3,34.5,N/A,Rain,Freezing Rain,350,2013-12-28 20:55:00
3:15 PM,5.0,-0.4,78,30.14,1.5,NNW,24.2,41.4,N/A,Snow,Light Snow,340,2013-12-28 21:15:00
3:35 PM,5.0,-0.4,78,30.17,3.0,North,29.9,38.0,N/A,Rain,Freezing Rain,350,2013-12-28 21:35:00
3:55 PM,3.2,-0.4,85,30.19,1.2,NNW,24.2,31.1,0.01,Snow,Light Snow,340,2013-12-28 21:55:00
4:15 PM,1.4,-2.2,85,30.21,1.5,NNW,25.3,36.8,0.01,Snow,Light Snow,340,2013-12-28 22:15:00
4:35 PM,1.4,-2.2,85,30.23,0.5,NNW,20.7,33.4,0.07,Snow,Snow,340,2013-12-28 22:35:00
4:55 PM,1.4,-2.2,85,30.25,1.8,NNW,25.3,35.7,0.10,Snow,Light Snow,340,2013-12-28 22:55:00
5:15 PM,1.4,-2.2,85,30.27,4.0,NNW,23.0,34.5,N/A,Rain,Freezing Rain,340,2013-12-28 23:15:00
5:35 PM,-0.4,-4.0,85,30.29,3.0,NNW,24.2,29.9,N/A,Rain,Freezing Rain,340,2013-12-28 23:35:00
5:55 PM,-0.4,-5.8,78,30.31,4.0,NNW,26.5,35.7,N/A,Rain,Freezing Rain,340,2013-12-28 23:55:00
6:15 PM,-0.4,-7.6,72,30.32,5.0,North,25.3,36.8,N/A,,Haze,350,2013-12-29 00:15:00
6:35 PM,-0.4,-7.6,72,30.33,10.0,NNW,26.5,33.4,N/A,,Mostly Cloudy,340,2013-12-29 00:35:00
6:55 PM,-0.4,-7.6,72,30.35,10.0,NNW,23.0,31.1,N/A,,Mostly Cloudy,340,2013-12-29 00:55:00
7:15 PM,-2.2,-7.6,78,30.37,10.0,North,21.9,29.9,N/A,,Mostly Cloudy,350,2013-12-29 01:15:00
7:35 PM,-2.2,-9.4,71,30.38,10.0,NNW,18.4,28.8,N/A,,Scattered Clouds,340,2013-12-29 01:35:00
7:55 PM,-4.0,-9.4,78,30.38,10.0,NNW,18.4,28.8,N/A,,Partly Cloudy,340,2013-12-29 01:55:00
8:15 PM,-2.2,-11.2,66,30.39,10.0,North,24.2,28.8,N/A,,Clear,350,2013-12-29 02:15:00
8:35 PM,-4.0,-11.2,71,30.40,10.0,North,19.6,26.5,N/A,,Clear,350,2013-12-29 02:35:00
8:55 PM,-4.0,-11.2,71,30.41,10.0,NNW,16.1,24.2,N/A,,Clear,340,2013-12-29 02:55:00
9:15 PM,-4.0,-11.2,71,30.41,10.0,NNW,13.8,-,N/A,,Clear,340,2013-12-29 03:15:00
9:35 PM,-4.0,-11.2,71,30.42,10.0,NNW,11.5,-,N/A,,Clear,340,2013-12-29 03:35:00
9:55 PM,-5.8,-11.2,77,30.43,10.0,NNW,12.7,-,N/A,,Clear,330,2013-12-29 03:55:00
10:15 PM,-5.8,-11.2,77,30.44,10.0,NNW,6.9,-,N/A,,Scattered Clouds,330,2013-12-29 04:15:00
10:35 PM,-5.8,-11.2,77,30.44,10.0,NNW,11.5,16.1,N/A,,Overcast,340,2013-12-29 04:35:00
10:55 PM,-4.0,-11.2,71,30.45,10.0,NNW,12.7,-,N/A,,Overcast,330,2013-12-29 04:55:00
11:15 PM,-4.0,-13.0,65,30.44,10.0,NNW,11.5,16.1,N/A,,Mostly Cloudy,330,2013-12-29 05:15:00
11:35 PM,-4.0,-13.0,65,30.45,10.0,NNW,9.2,-,N/A,,Mostly Cloudy,330,2013-12-29 05:35:00
11:55 PM,-4.0,-13.0,65,30.44,10.0,NNW,9.2,-,N/A,,Overcast,330,2013-12-29 05:55:00